[[{"header":{"parameterUnit":"m.s-1","parameterCategory":1,"la1":30.2991,"la2":30.254,"lo1":-89.0895,"lo2":-89.0444,"dy":0.0017,"dx":0.0017,"nx":28,"ny":28,"refTime":"2024-03-12T09:00:00:Z","depth":0,"parameterNumber":2,"parameterNumberName":"U-component_of_WINDS"},"data":[0,0,0,0,0,0,0,0,0,0,0,0,0,0,0,0,0,0,0,0,0,0,0,0,0,0,0,0,0,0,0,0,0,0,0,0,0,0,0,0,0,0,0,0,0,0,0,0,0,0,0,0,0,0,0,0,0,0,0.1784,0.1784,0,0.1821,0.1821,0.1822,0.1813,0.1812,0.1811,0.181,0.1848,0.1849,0.1851,0,0,0,0,0,0,0,0,0,0,0,0,0,0.1704,0.1705,0.1784,0.1785,0.1785,0.1821,0.1821,0.1822,0.1813,0.1812,0.1811,0.181,0.1847,0.1849,0.1851,0,0,0,0,0,0,0,0,0,0,0,0,0,0.1739,0.1706,0.1784,0.1785,0.1785,0.1821,0.1821,0.1822,0.1813,0.1812,0.1811,0.181,0.1846,0.1849,0.1851,0.1888,0,0,0.1859,0.186,0,0,0,0,0,0,0,0,0.1737,0.1742,0.1784,0.1785,0.1785,0.1811,0.1807,0.1844,0.1813,0.1802,0.181,0.1809,0.1836,0.184,0.1849,0.189,0.1892,0.1859,0.1861,0.1862,0.1862,0,0,0,0,0,0,0,0.1735,0.1741,0.1799,0.1785,0.1785,0.1783,0.1786,0.1814,0.1825,0.1803,0.1803,0.1807,0.1836,0.1846,0.185,0.1892,0.1859,0.1861,0.1863,0.1864,0.1963,0.1964,0,0,0,0,0,0,0.1732,0.1739,0.1797,0.18,0.1758,0.1785,0.1789,0.1804,0.1825,0.1827,0.1808,0.1807,0.1843,0.1847,0.1851,0.1894,0.1862,0.1864,0.1865,0.1962,0.1963,0.1965,0,0,0,0,0,0,0.173,0.1737,0.1796,0.1769,0.1776,0.1787,0.1804,0.1805,0.1815,0.1828,0.183,0.1816,0.1842,0.1847,0.1879,0.1895,0.1865,0.1867,0.1961,0.1963,0.1964,0.1981,0,0,0,0,0,0,0.1728,0.1737,0.1752,0.1769,0.1778,0.1824,0.1805,0.1807,0.182,0.1818,0.1837,0.1839,0.1842,0.1875,0.1881,0.1898,0.1869,0.1959,0.1962,0.1964,0.1979,0.1984,0.1987,0,0,0,0,0,0.1725,0.1755,0.1752,0.176,0.1796,0.1825,0.1829,0.1832,0.1821,0.1835,0.1843,0.1838,0.1893,0.1878,0.1885,0.1903,0.1958,0.1961,0.1963,0.1978,0.1983,0.1987,0,0,0,0,0,0,0.1739,0.1758,0.1755,0.1792,0.1807,0.1823,0.1841,0.1838,0.1857,0.1854,0.1857,0.1861,0.1893,0.1901,0.1885,0.1939,0.1924,0.1928,0.1932,0.1937,0.1941,0.1938,0.1871,0,0,0,0,0,0.1747,0.1769,0.1783,0.1814,0.1822,0.183,0.1843,0.1844,0.1859,0.1866,0.1876,0.1891,0.1911,0.1925,0.1944,0.1981,0.1984,0.1996,0.2,0.2003,0.2006,0.2024,0.203,0.1973,0.1973,0.1973,0,0,0.1762,0.1775,0.1789,0.1817,0.1829,0.1851,0.1836,0.186,0.1876,0.1869,0.1899,0.1907,0.1924,0.1957,0.1973,0.1965,0.2023,0.2007,0.2009,0.201,0.2027,0.2033,0.2037,0.1975,0.1975,0.1974,0,0,0.1801,0.1814,0.184,0.1852,0.187,0.1875,0.1881,0.1898,0.1903,0.1933,0.1928,0.1946,0.1982,0.1994,0.2004,0.2046,0.2041,0.2052,0.2072,0.2089,0.2094,0.2097,0.2111,0.2116,0.2055,0.2055,0.2055,0,0.1818,0.1851,0.1854,0.1878,0.189,0.1885,0.1911,0.1922,0.1945,0.1954,0.1945,0.1988,0.1999,0.2034,0.2044,0.2054,0.206,0.205,0.2093,0.2097,0.21,0.2113,0.2118,0.2057,0.2056,0.2056,0.2056,0,0.187,0.1892,0.1912,0.1934,0.1948,0.1973,0.1979,0.1993,0.1992,0.1998,0.2027,0.204,0.2062,0.207,0.207,0.2105,0.21,0.2092,0.2077,0.2107,0.2119,0.2124,0.2058,0.2058,0.2057,0.2057,0,0,0.1919,0.1941,0.1948,0.1957,0.1976,0.1993,0.2017,0.2038,0.2049,0.2065,0.2085,0.2114,0.2107,0.2119,0.212,0.2135,0.2165,0.2125,0.2126,0.2131,0.2202,0.2207,0.2212,0.2162,0.2163,0.2164,0.22,0,0.1958,0.2001,0.2003,0.2041,0.2061,0.2056,0.2077,0.209,0.2096,0.2113,0.212,0.214,0.2129,0.2136,0.2151,0.2158,0.2179,0.2156,0.2179,0.218,0.2174,0.2219,0.2224,0.2258,0.2205,0.2206,0.2206,0,0.201,0.2027,0.2067,0.2081,0.209,0.2108,0.2126,0.2144,0.2158,0.2161,0.2173,0.2172,0.2195,0.2179,0.2211,0.2195,0.2204,0.2209,0.221,0.2212,0.2194,0.222,0.2269,0.2273,0.2214,0.2213,0.2213,0,0.2039,0.2072,0.21,0.2108,0.2126,0.2139,0.2147,0.216,0.2172,0.2188,0.2195,0.2214,0.2224,0.2237,0.224,0.2229,0.2271,0.2256,0.2273,0.2273,0.2282,0.2281,0.2331,0.229,0.229,0.229,0.229,0,0.2082,0.2107,0.2113,0.213,0.2157,0.2159,0.2185,0.2192,0.2204,0.2221,0.2218,0.2235,0.2238,0.2255,0.2258,0.2282,0.2287,0.2289,0.2289,0.2289,0.2288,0.2294,0.2292,0.2291,0.2291,0.2291,0.229,0,0.212,0.2126,0.2155,0.2169,0.2173,0.2192,0.2204,0.2219,0.2224,0.2246,0.2252,0.2259,0.2279,0.2283,0.2307,0.2308,0.2337,0.2335,0.2332,0.2331,0.2348,0.2345,0.2403,0.241,0.2365,0.2365,0.2366,0,0.2146,0.2165,0.218,0.2192,0.22,0.2219,0.2231,0.2234,0.2246,0.2262,0.2276,0.2295,0.231,0.2341,0.2348,0.2365,0.2364,0.2382,0.2366,0.2364,0.2362,0.236,0.2361,0.2385,0.2386,0.2386,0.2386,0,0.2192,0.2193,0.2211,0.2228,0.2242,0.2257,0.227,0.2279,0.2284,0.2297,0.2317,0.2329,0.2352,0.237,0.2387,0.2395,0.2391,0.2391,0.2396,0.2395,0.2392,0.2392,0.2339,0.239,0.239,0.2389,0.2389,0.2389,0.2224,0.2239,0.2252,0.2271,0.2281,0.2294,0.2308,0.2315,0.2332,0.2351,0.2351,0.2372,0.2384,0.2407,0.2415,0.2431,0.2425,0.2432,0.2434,0.2435,0.2436,0.239,0.2434,0.2434,0.2434,0.2434,0.2434,0,0.2268,0.2276,0.2293,0.2312,0.2326,0.2321,0.2336,0.2348,0.2366,0.2378,0.2393,0.2415,0.2432,0.244,0.2457,0.2468,0.2467,0.2472,0.2471,0.2472,0.2441,0.2434,0.2473,0.2473,0.2473,0.2473,0.2473,0.2473,0.2292,0.2318,0.2321,0.2351,0.2358,0.2379,0.2387,0.2398,0.2407,0.2432,0.2446,0.2451,0.2461,0.2479,0.2494,0.2496,0.2502,0.2508,0.2509,0.2479,0.2475,0.2471,0.2465,0.251,0.251,0.2539,0.2539,0.254]},{"header":{"parameterUnit":"m.s-1","parameterCategory":1,"la1":30.2991,"la2":30.254,"lo1":-89.0895,"lo2":-89.0444,"dy":0.0017,"dx":0.0017,"nx":28,"ny":28,"refTime":"2024-03-12T09:00:00:Z","depth":0,"parameterNumber":3,"parameterNumberName":"V-component_of_WINDS"},"data":[0,0,0,0,0,0,0,0,0,0,0,0,0,0,0,0,0,0,0,0,0,0,0,0,0,0,0,0,0,0,0,0,0,0,0,0,0,0,0,0,0,0,0,0,0,0,0,0,0,0,0,0,0,0,0,0,0,0,1.1928,1.193,0,1.2109,1.2111,1.2113,1.2179,1.2178,1.2177,1.2177,1.236,1.2365,1.237,0,0,0,0,0,0,0,0,0,0,0,0,0,1.1636,1.1641,1.1928,1.193,1.1933,1.2109,1.2111,1.2114,1.2179,1.2178,1.2177,1.2177,1.2358,1.2364,1.2371,0,0,0,0,0,0,0,0,0,0,0,0,0,1.1784,1.1643,1.1928,1.1986,1.1993,1.2108,1.2111,1.2114,1.2179,1.2178,1.2177,1.2176,1.2356,1.2364,1.2372,1.2441,0,0,1.2397,1.24,0,0,0,0,0,0,0,0,1.1776,1.1795,1.1975,1.1983,1.1991,1.212,1.2075,1.2224,1.2179,1.2108,1.2177,1.2176,1.2281,1.2295,1.2331,1.2449,1.2457,1.2397,1.2402,1.2406,1.2408,0,0,0,0,0,0,0,1.1765,1.1787,1.2,1.1978,1.1987,1.2003,1.2023,1.2104,1.2197,1.2114,1.212,1.214,1.2284,1.2323,1.2335,1.246,1.2397,1.2404,1.2409,1.2413,1.2641,1.2642,0,0,0,0,0,0,1.1746,1.1778,1.1994,1.2005,1.1879,1.2009,1.2031,1.208,1.2197,1.2214,1.2141,1.2143,1.2309,1.2326,1.2342,1.243,1.2406,1.2413,1.2418,1.264,1.2642,1.2643,0,0,0,0,0,0,1.1739,1.1764,1.1987,1.1893,1.1923,1.2015,1.2069,1.2084,1.2122,1.2217,1.2233,1.2163,1.2309,1.2331,1.2415,1.2437,1.2417,1.2424,1.2639,1.2641,1.2642,1.2605,0,0,0,0,0,0,1.173,1.1762,1.179,1.1893,1.1927,1.2058,1.207,1.2088,1.2136,1.214,1.2242,1.2258,1.231,1.2403,1.2423,1.2448,1.2431,1.2637,1.264,1.2642,1.2605,1.2606,1.2606,0,0,0,0,0,1.172,1.1772,1.1791,1.1816,1.1965,1.2059,1.2078,1.2138,1.2138,1.2166,1.2226,1.2255,1.2431,1.2411,1.2435,1.2462,1.2636,1.2639,1.2641,1.2605,1.2605,1.2606,0,0,0,0,0,0,1.1669,1.1787,1.1809,1.1897,1.1967,1.207,1.2108,1.2137,1.2209,1.221,1.228,1.2302,1.2381,1.243,1.2405,1.2533,1.2535,1.2543,1.2499,1.25,1.2501,1.2488,1.2438,0,0,0,0,0,1.1667,1.1735,1.1834,1.1902,1.1936,1.2015,1.2059,1.2098,1.2174,1.2204,1.2271,1.2343,1.2414,1.246,1.2531,1.2612,1.2634,1.2642,1.2642,1.2642,1.2648,1.2693,1.2697,1.2652,1.2652,1.2651,0,0,1.1666,1.1739,1.1777,1.1893,1.1953,1.202,1.204,1.2111,1.2161,1.2215,1.2299,1.235,1.2434,1.2517,1.2557,1.256,1.2665,1.2646,1.2645,1.2651,1.2696,1.27,1.2704,1.2653,1.2653,1.2653,0,0,1.1697,1.176,1.1822,1.1881,1.197,1.2023,1.2037,1.2135,1.2171,1.2257,1.2298,1.2358,1.248,1.2538,1.2583,1.2634,1.2662,1.2655,1.2658,1.27,1.2704,1.2707,1.2725,1.273,1.266,1.266,1.266,0,1.1684,1.1788,1.185,1.1919,1.1968,1.2019,1.2082,1.2136,1.2244,1.2276,1.2278,1.2431,1.2492,1.2588,1.26,1.2635,1.2653,1.2644,1.2698,1.2703,1.2707,1.2724,1.273,1.2659,1.2659,1.2659,1.2659,0,1.1766,1.1837,1.1877,1.198,1.2033,1.2098,1.2169,1.2215,1.225,1.2301,1.2386,1.246,1.2546,1.2572,1.2606,1.2672,1.2671,1.2685,1.2688,1.2709,1.2726,1.2733,1.2656,1.2657,1.2657,1.2658,0,0,1.1773,1.1908,1.1921,1.1968,1.2069,1.2125,1.2191,1.2275,1.2313,1.2385,1.2441,1.2542,1.2555,1.2606,1.2647,1.2685,1.2718,1.2694,1.2697,1.2695,1.2794,1.2783,1.279,1.2737,1.2739,1.274,1.2787,0,1.1817,1.1939,1.1996,1.2092,1.2158,1.2206,1.2264,1.2331,1.238,1.2442,1.2495,1.2565,1.2578,1.2609,1.2648,1.2706,1.2739,1.2703,1.2789,1.2792,1.2767,1.2799,1.2788,1.2829,1.2794,1.2795,1.2796,0,1.1887,1.1958,1.206,1.2152,1.2182,1.2233,1.2314,1.2372,1.2449,1.2481,1.2537,1.2577,1.2646,1.2644,1.274,1.2714,1.2752,1.2786,1.2789,1.28,1.2795,1.281,1.2844,1.285,1.2807,1.2806,1.2806,0,1.188,1.2002,1.2078,1.2117,1.2226,1.226,1.2307,1.2383,1.2429,1.2499,1.253,1.2607,1.2649,1.2707,1.2765,1.2758,1.2855,1.2858,1.2883,1.2882,1.2903,1.29,1.2943,1.2927,1.2927,1.2926,1.2926,0,1.1924,1.1985,1.2077,1.2124,1.2192,1.2256,1.2322,1.2372,1.2439,1.2495,1.2541,1.2593,1.2667,1.2728,1.2773,1.2845,1.2864,1.2892,1.2903,1.2888,1.2884,1.2914,1.2913,1.2928,1.2928,1.2927,1.2927,0,1.1929,1.1993,1.208,1.2175,1.2201,1.2247,1.2328,1.2375,1.2425,1.2496,1.2516,1.2595,1.2668,1.2732,1.2829,1.2859,1.2933,1.2947,1.2908,1.2914,1.2936,1.2933,1.2999,1.301,1.2986,1.2986,1.2986,0,1.1953,1.2001,1.2101,1.2142,1.2188,1.2255,1.2302,1.2365,1.2413,1.2502,1.2537,1.2614,1.268,1.2794,1.286,1.2933,1.2949,1.2967,1.2961,1.2943,1.2949,1.2945,1.295,1.2967,1.2967,1.2967,1.2967,0,1.1989,1.2018,1.2085,1.2162,1.2217,1.2281,1.2346,1.2377,1.2452,1.2502,1.2578,1.2629,1.2727,1.2803,1.2883,1.293,1.2961,1.2969,1.2978,1.2963,1.2938,1.2952,1.2908,1.2967,1.2967,1.2967,1.2967,1.2967,1.2005,1.2048,1.2125,1.2197,1.2253,1.2312,1.236,1.2416,1.248,1.2566,1.2599,1.2676,1.2749,1.286,1.2907,1.2967,1.2972,1.2986,1.299,1.2992,1.299,1.2928,1.2982,1.2982,1.2982,1.2982,1.2982,0,1.2042,1.2093,1.2159,1.2248,1.2304,1.2328,1.2401,1.2446,1.2513,1.2579,1.2642,1.2728,1.28,1.287,1.2946,1.298,1.2996,1.2998,1.2996,1.3006,1.2981,1.2965,1.2984,1.2984,1.2984,1.2984,1.2984,1.2984,1.2069,1.2144,1.2181,1.2283,1.2334,1.241,1.2449,1.2503,1.2556,1.265,1.271,1.2755,1.2822,1.2903,1.297,1.2988,1.3014,1.3012,1.3034,1.3009,1.3008,1.3007,1.2993,1.3017,1.3017,1.3054,1.3055,1.3055]}]]